| time (UTC) | temp F | wind direction | speed MPH | gust MPH | rain 1hr in | rain 24hr in | rain mn in | humidity % | barometer mb |
| 20260509001529 | 59 | 65 | 11.0 | 17.0 | 0.00 | 0.00 | 0.00 | 56 | 1027.3 |
| 20260509000016 | 59 | 82 | 10.0 | 16.0 | 0.00 | 0.00 | 0.00 | 57 | 1027.3 |
| 20260508234522 | 58 | 65 | 8.0 | 15.0 | 0.00 | 0.00 | 0.00 | 58 | 1027.1 |
| 20260508233029 | 58 | 56 | 8.0 | 16.0 | 0.00 | 0.00 | 0.00 | 58 | 1027.0 |
| 20260508231520 | 57 | 63 | 7.0 | 12.0 | 0.00 | 0.00 | 0.00 | 59 | 1027.0 |
| 20260508230027 | 57 | 49 | 6.0 | 13.0 | 0.00 | 0.00 | 0.00 | 59 | 1027.0 |
| 20260508224525 | 57 | 86 | 9.0 | 16.0 | 0.00 | 0.00 | 0.00 | 58 | 1026.8 |
| 20260508223004 | 58 | 91 | 7.0 | 15.0 | 0.00 | 0.00 | 0.00 | 58 | 1026.7 |
| 20260508221512 | 58 | 98 | 8.0 | 16.0 | 0.00 | 0.00 | 0.00 | 57 | 1026.7 |
| 20260508220017 | 58 | 87 | 9.0 | 16.0 | 0.00 | 0.00 | 0.00 | 58 | 1026.6 |
| 20260508213014 | 57 | 74 | 7.0 | 11.0 | 0.00 | 0.00 | 0.00 | 58 | 1026.6 |
| 20260508211519 | 57 | 98 | 4.0 | 9.0 | 0.00 | 0.00 | 0.00 | 58 | 1026.4 |
| 20260508210015 | 57 | 93 | 4.0 | 9.0 | 0.00 | 0.00 | 0.00 | 58 | 1026.4 |
| 20260508204517 | 57 | 103 | 3.0 | 8.0 | 0.00 | 0.00 | 0.00 | 58 | 1026.4 |
| 20260508203019 | 58 | 83 | 5.0 | 8.0 | 0.00 | 0.00 | 0.00 | 57 | 1026.3 |
| 20260508201513 | 58 | 91 | 6.0 | 9.0 | 0.00 | 0.00 | 0.00 | 56 | 1026.3 |
| 20260508200023 | 58 | 94 | 3.0 | 10.0 | 0.00 | 0.00 | 0.00 | 56 | 1026.3 |
| 20260508194507 | 58 | 77 | 5.0 | 10.0 | 0.00 | 0.00 | 0.00 | 56 | 1026.0 |
| 20260508193016 | 59 | 89 | 6.0 | 12.0 | 0.00 | 0.00 | 0.00 | 55 | 1026.0 |
| 20260508191520 | 59 | 89 | 5.0 | 11.0 | 0.00 | 0.00 | 0.00 | 54 | 1025.9 |
| 20260508190010 | 59 | 60 | 5.0 | 11.0 | 0.00 | 0.00 | 0.00 | 54 | 1025.8 |
| 20260508184522 | 60 | 67 | 7.0 | 16.0 | 0.00 | 0.00 | 0.00 | 53 | 1025.8 |
| 20260508183022 | 61 | 111 | 8.0 | 15.0 | 0.00 | 0.00 | 0.00 | 52 | 1025.9 |
| 20260508181516 | 61 | 107 | 10.0 | 16.0 | 0.00 | 0.00 | 0.00 | 51 | 1025.9 |
| 20260508180019 | 61 | 87 | 10.0 | 19.0 | 0.00 | 0.00 | 0.00 | 51 | 1025.9 |
| 20260508174513 | 61 | 95 | 7.0 | 17.0 | 0.00 | 0.00 | 0.00 | 51 | 1025.9 |
| 20260508173017 | 61 | 96 | 7.0 | 13.0 | 0.00 | 0.00 | 0.00 | 51 | 1025.9 |
| 20260508171524 | 61 | 83 | 9.0 | 14.0 | 0.00 | 0.00 | 0.00 | 51 | 1025.9 |
| 20260508170011 | 62 | 86 | 7.0 | 14.0 | 0.00 | 0.00 | 0.00 | 50 | 1026.0 |
| 20260508164519 | 62 | 78 | 6.0 | 16.0 | 0.00 | 0.00 | 0.00 | 49 | 1026.0 |
| 20260508163013 | 62 | 68 | 8.0 | 14.0 | 0.00 | 0.00 | 0.00 | 48 | 1026.0 |
| 20260508161528 | 63 | 95 | 6.0 | 14.0 | 0.00 | 0.00 | 0.00 | 47 | 1025.9 |
| 20260508160003 | 63 | 63 | 10.0 | 17.0 | 0.00 | 0.00 | 0.00 | 46 | 1025.6 |
| 20260508153032 | 64 | 94 | 10.0 | 17.0 | 0.00 | 0.00 | 0.00 | 45 | 1025.5 |
| 20260508150013 | 64 | 78 | 6.0 | 15.0 | 0.00 | 0.00 | 0.00 | 45 | 1025.9 |
| 20260508144503 | 64 | 128 | 7.0 | 15.0 | 0.00 | 0.00 | 0.00 | 45 | 1026.1 |
| 20260508143008 | 64 | 98 | 7.0 | 17.0 | 0.00 | 0.00 | 0.00 | 46 | 1026.3 |
| 20260508141516 | 64 | 84 | 10.0 | 16.0 | 0.00 | 0.00 | 0.00 | 47 | 1026.2 |
| 20260508140006 | 64 | 117 | 9.0 | 14.0 | 0.00 | 0.00 | 0.00 | 50 | 1026.2 |
| 20260508134512 | 64 | 82 | 8.0 | 13.0 | 0.00 | 0.00 | 0.00 | 51 | 1026.2 |
| 20260508133021 | 64 | 101 | 7.0 | 12.0 | 0.00 | 0.00 | 0.00 | 51 | 1026.2 |
| 20260508131508 | 64 | 115 | 7.0 | 10.0 | 0.00 | 0.00 | 0.00 | 51 | 1026.2 |
| 20260508130015 | 64 | 97 | 7.0 | 10.0 | 0.00 | 0.00 | 0.00 | 51 | 1026.1 |
| 20260508124504 | 64 | 126 | 7.0 | 10.0 | 0.00 | 0.00 | 0.00 | 51 | 1026.1 |
| 20260508123020 | 65 | 115 | 6.0 | 11.0 | 0.00 | 0.00 | 0.00 | 50 | 1026.0 |
| 20260508121520 | 65 | 122 | 6.0 | 10.0 | 0.00 | 0.00 | 0.00 | 50 | 1026.0 |
| 20260508120008 | 65 | 112 | 6.0 | 11.0 | 0.00 | 0.00 | 0.00 | 50 | 1026.0 |
| 20260508114514 | 65 | 97 | 4.0 | 8.0 | 0.00 | 0.00 | 0.00 | 50 | 1026.0 |
| 20260508113022 | 66 | 135 | 6.0 | 10.0 | 0.00 | 0.00 | 0.00 | 49 | 1025.9 |
| 20260508111515 | 66 | 123 | 6.0 | 9.0 | 0.00 | 0.00 | 0.00 | 49 | 1026.0 |
| 20260508110029 | 67 | 92 | 6.0 | 10.0 | 0.00 | 0.00 | 0.00 | 48 | 1025.9 |
| 20260508104524 | 67 | 115 | 6.0 | 10.0 | 0.00 | 0.00 | 0.00 | 48 | 1026.0 |
| 20260508103034 | 67 | 91 | 6.0 | 9.0 | 0.00 | 0.00 | 0.00 | 48 | 1025.9 |
| 20260508100009 | 68 | 105 | 6.0 | 10.0 | 0.00 | 0.00 | 0.00 | 46 | 1025.7 |
| 20260508094518 | 69 | 95 | 7.0 | 11.0 | 0.00 | 0.00 | 0.00 | 45 | 1025.7 |
| 20260508093034 | 70 | 140 | 7.0 | 14.0 | 0.00 | 0.00 | 0.00 | 44 | 1025.6 |
| 20260508091514 | 70 | 93 | 8.0 | 17.0 | 0.00 | 0.00 | 0.00 | 43 | 1025.4 |
| 20260508090024 | 71 | 105 | 10.0 | 18.0 | 0.00 | 0.00 | 0.00 | 42 | 1025.3 |
| 20260508084525 | 71 | 111 | 11.0 | 17.0 | 0.00 | 0.00 | 0.00 | 43 | 1025.3 |
| 20260508083013 | 72 | 134 | 13.0 | 20.0 | 0.00 | 0.00 | 0.00 | 42 | 1025.1 |
| 20260508081523 | 72 | 89 | 11.0 | 19.0 | 0.00 | 0.00 | 0.00 | 42 | 1025.2 |
| 20260508080010 | 72 | 128 | 8.0 | 14.0 | 0.00 | 0.00 | 0.00 | 43 | 1025.1 |
| 20260508074518 | 73 | 103 | 6.0 | 16.0 | 0.00 | 0.00 | 0.00 | 43 | 1025.1 |
| 20260508073024 | 73 | 105 | 11.0 | 19.0 | 0.00 | 0.00 | 0.00 | 43 | 1025.1 |
| 20260508071514 | 73 | 90 | 10.0 | 19.0 | 0.00 | 0.00 | 0.00 | 43 | 1025.2 |
| 20260508070023 | 73 | 101 | 12.0 | 16.0 | 0.00 | 0.00 | 0.00 | 42 | 1025.1 |
| 20260508064510 | 73 | 97 | 6.0 | 18.0 | 0.00 | 0.00 | 0.00 | 43 | 1025.3 |
| 20260508063021 | 73 | 111 | 9.0 | 17.0 | 0.00 | 0.00 | 0.00 | 43 | 1025.5 |
| 20260508061523 | 72 | 90 | 12.0 | 20.0 | 0.00 | 0.00 | 0.00 | 46 | 1025.6 |
| 20260508054602 | 72 | 107 | 6.0 | 16.0 | 0.00 | 0.00 | 0.00 | 47 | 1026.1 |
| 20260508053012 | 72 | 37 | 7.0 | 17.0 | 0.00 | 0.00 | 0.00 | 46 | 1026.2 |
| 20260508050024 | 72 | 88 | 9.0 | 15.0 | 0.00 | 0.00 | 0.00 | 48 | 1026.6 |
| 20260508044511 | 71 | 110 | 10.0 | 19.0 | 0.00 | 0.00 | 0.00 | 48 | 1026.7 |
| 20260508041528 | 71 | 86 | 9.0 | 15.0 | 0.00 | 0.00 | 0.00 | 50 | 1027.1 |
| 20260508040014 | 70 | 55 | 8.0 | 15.0 | 0.00 | 0.00 | 0.00 | 50 | 1027.6 |
| 20260508034533 | 70 | 89 | 8.0 | 17.0 | 0.00 | 0.00 | 0.00 | 51 | 1028.0 |
| 20260508033013 | 69 | 88 | 11.0 | 18.0 | 0.00 | 0.00 | 0.00 | 51 | 1028.4 |
| 20260508031519 | 69 | 90 | 9.0 | 20.0 | 0.00 | 0.00 | 0.00 | 50 | 1028.5 |
| 20260508030026 | 68 | 87 | 11.0 | 21.0 | 0.00 | 0.00 | 0.00 | 52 | 1028.6 |
| 20260508023023 | 67 | 60 | 9.0 | 17.0 | 0.00 | 0.00 | 0.00 | 52 | 1028.8 |
| 20260508021526 | 66 | 101 | 11.0 | 18.0 | 0.00 | 0.00 | 0.00 | 55 | 1029.0 |
| 20260508020017 | 65 | 113 | 10.0 | 16.0 | 0.00 | 0.00 | 0.00 | 57 | 1029.1 |
| 20260508014534 | 65 | 360 | 6.0 | 17.0 | 0.00 | 0.00 | 0.00 | 58 | 1029.2 |
| 20260508010040 | 61 | 78 | 10.0 | 14.0 | 0.00 | 0.00 | 0.00 | 63 | 1029.8 |
| 20260508004524 | 61 | 95 | 5.0 | 11.0 | 0.00 | 0.00 | 0.00 | 64 | 1030.0 |
| 20260508003024 | 60 | 90 | 7.0 | 12.0 | 0.00 | 0.00 | 0.00 | 65 | 1029.8 |